Regional Weather Roundup
Issued by NWS Northern Indiana

Home | Current Version | Previous Version | Graphics & Text | Print | Product List | Glossary On
Versions: 1 2 3 4 5 6 7 8 9 10 11 12 13 14 15 16 17 18 19 20 21 22 23 24 25 26 27 28 29 30 31 32 33 34 35 36 37 38 39 40 41 42 43 44 45 46 47 48 49 50
000
ASUS43 KIWX 212200
RWRIWX

KIWX WEATHER ROUNDUP
NATIONAL WEATHER SERVICE NORTHERN INDIANA
600 PM EDT THU AUG 21 2014

NOTE: "FAIR" INDICATES FEW OR NO CLOUDS BELOW 12,000 FEET WITH NO
SIGNIFICANT WEATHER AND/OR OBSTRUCTIONS TO VISIBILITY.

* THESE STATIONS ARE NOT UNDER NWS QUALITY CONTROL. THEY ALSO MAY NOT
  REPORT WEATHER SUCH AS PRECIPITATION OR FOG.

INZ001>027-212300-
NORTHERN INDIANA

CITY           SKY/WX    TMP DP  RH WIND       PRES   REMARKS
GARY*          TSTM      75  73  94 N20       29.95R VSB 1
VALPARAISO     CLOUDY    78  74  87 E8        29.93F
KNOX*          PTSUNNY   79  73  82 E8        29.94F
SOUTH BEND     PTSUNNY   79  71  76 S8        29.96F
ELKHART*       PTSUNNY   79  72  78 SW6       29.97F
GOSHEN         PTSUNNY   80  71  74 S7        29.97F
MONTICELLO*    MOSUNNY   84  76  75 SW8       29.94F
WARSAW*        PTSUNNY   77  72  83 S5        29.97F
ANGOLA*        MOSUNNY   81  70  69 SW9       29.98F
FORT WAYNE     PTSUNNY   78  71  79 S9        30.00S

$$
INZ028>050-212300-
CENTRAL INDIANA

CITY           SKY/WX    TMP DP  RH WIND       PRES   REMARKS
LAFAYETTE      MOSUNNY   85  75  72 SW7       29.94F
KOKOMO*        PTSUNNY   84  73  70 SW8       29.96F
MUNCIE*        MOSUNNY   82  71  69 S8        29.99F
INDIANAPOLIS   PTSUNNY   85  74  69 SW9       29.97F

$$
MIZ043>046-050>051-056>058-064>065-071>073-077>080-212300-
SOUTHWEST LOWER MICHIGAN

CITY           SKY/WX    TMP DP  RH WIND       PRES   REMARKS
BATTLE CREEK   CLOUDY    77  70  79 SW10      29.98R
BENTON HARBOR  CLOUDY    76  72  87 CALM      29.96S
COLDWATER*     CLOUDY    79  71  76 SW12      29.97F
HILLSDALE*     LGT RAIN  76  74  93 SW3       29.98F
HOLLAND        LGT RAIN  76  71  85 SW8       29.97R
GRAND RAPIDS   CLOUDY    78  73  84 CALM      29.96F
KALAMAZOO      CLOUDY    77  73  87 SW6       29.98R
STURGIS*       CLOUDY    79  72  78 SW9       29.97F
THREE RIVERS*  FAIR      79  69  73 SW5       29.97S

$$
OHZ001>008-015>018-024>025-212300-
NORTHWEST OHIO

CITY           SKY/WX    TMP DP  RH WIND       PRES   REMARKS
DEFIANCE       CLOUDY    79  69  71 SW7       29.99F
FINDLAY        PTSUNNY   76  67  73 W10       29.99F
TOLEDO EXPRESS CLOUDY    80  69  69 SW10      29.97F
TOLEDO METCALF CLOUDY    80  69  69 W15       29.98F
LIMA           CLOUDY    76  71  85 W8        30.01S

$$
&&



USA.gov is the U.S. government's official web portal to all federal, state and local government web resources and services.